Lapse_Rate
5.5 5.4 5.5 5.4 5.3 5.3 5.1 5.1 4.9 4.8 4.9 4.8 4.7 4.7 4.6 4.6 4.6 4.8 5.1 5.2 5.1 5.0 5.1 5.1 5.0 5.0 5.1 5.1 5.1 5.1 5.0 4.9 5.0 5.3 5.2 5.3 5.3 5.4 5.5 5.5 5.6 5.6 5.9
5.2 5.3 5.5 5.3 5.1 5.1 5.1 4.9 4.7 4.7 4.6 4.5 4.5 4.5 4.5 4.7 4.9 4.9 4.9 4.8 4.9 5.0 5.0 5.0 5.0 5.0 5.0 5.0 5.0 5.1 5.2 5.2 5.2 5.3 5.6 5.3 5.0 5.1 5.1 5.3 5.3 5.4 5.5
5.4 5.3 5.3 5.3 5.2 5.1 4.9 4.7 4.6 4.6 4.4 4.4 4.4 4.5 4.6 4.8 4.8 4.8 4.7 4.9 5.0 5.1 5.2 5.1 5.3 5.4 5.6 5.6 5.7 5.9 6.0 6.0 6.0 6.0 6.2 5.9 5.5 5.0 4.6 4.7 4.8 4.8 5.0
5.4 5.3 5.3 5.2 5.0 4.8 4.8 4.6 4.5 4.2 4.1 4.2 4.2 4.5 4.8 5.0 4.9 4.9 4.9 5.1 5.4 5.5 5.6 5.7 5.8 5.9 5.9 6.0 6.0 6.2 6.2 6.3 6.3 6.2 6.1 6.1 6.0 5.9 5.6 5.3 5.3 5.2 5.0
5.3 5.3 5.0 5.0 4.9 4.9 4.6 4.4 4.1 4.0 4.1 4.4 4.7 4.9 5.0 5.0 4.9 5.1 5.3 5.6 5.8 5.9 6.0 6.1 6.2 6.2 6.2 6.3 6.2 6.3 6.3 6.2 6.0 6.0 6.0 6.0 6.1 6.0 5.9 5.9 5.5 5.6 5.7
5.4 5.3 5.0 5.0 5.0 4.8 4.4 4.2 4.4 4.5 4.7 4.8 5.0 5.0 5.0 5.1 5.2 5.5 5.9 6.1 6.3 6.5 6.5 6.4 6.4 6.4 6.3 6.3 6.3 6.2 6.1 6.0 5.9 6.0 5.9 5.9 6.0 6.0 5.9 5.8 5.5 5.3 5.5
5.3 5.4 5.2 5.1 4.9 4.6 4.5 4.6 4.8 4.8 4.8 4.9 5.0 5.1 5.3 5.4 5.7 6.0 6.3 6.6 6.7 6.8 6.6 6.5 6.5 6.4 6.3 6.3 6.3 6.2 6.0 6.0 6.0 5.8 5.9 6.1 6.0 5.9 5.8 5.7 5.5 5.4 5.4
5.4 5.2 5.2 5.1 5.0 5.0 5.0 5.1 5.0 4.9 5.0 5.2 5.1 5.3 5.5 5.8 6.1 6.4 6.7 6.8 6.9 6.9 6.7 6.6 6.5 6.4 6.5 6.4 6.3 6.4 6.3 6.2 6.0 5.9 5.9 6.1 6.0 5.9 5.9 5.9 5.7 5.7 5.8
5.4 5.5 5.5 5.1 5.1 5.2 5.3 5.1 5.0 5.3 5.3 5.3 5.4 5.6 5.9 6.3 6.5 6.8 6.9 7.0 7.0 6.9 6.7 6.6 6.5 6.5 6.6 6.6 6.5 6.4 6.1 6.0 5.8 6.0 6.2 6.3 6.1 5.7 5.3 5.1 5.1 5.5 6.1
5.8 5.5 5.3 5.2 5.2 5.2 5.2 5.3 5.4 5.4 5.3 5.5 5.8 6.1 6.4 6.6 6.7 6.8 7.0 7.1 7.2 7.1 6.9 6.7 6.6 6.6 6.4 6.4 6.3 6.1 5.9 5.9 5.9 6.2 6.4 6.2 5.9 5.6 5.3 5.0 4.8 5.0 5.3
5.6 5.3 5.2 5.2 5.2 5.2 5.5 5.5 5.3 5.3 5.6 5.9 6.2 6.5 6.7 6.8 6.9 7.0 7.1 7.1 7.2 7.1 7.0 6.8 6.8 6.7 6.5 6.4 6.3 6.0 5.7 5.6 6.0 6.1 6.2 6.0 5.7 5.4 5.1 4.9 4.7 4.6 4.9
5.2 5.2 5.2 5.3 5.5 5.6 5.5 5.4 5.5 5.7 6.0 6.5 6.8 6.9 7.0 7.1 7.1 7.2 7.3 7.4 7.4 7.3 7.2 7.0 7.1 6.9 6.7 6.5 6.2 5.9 5.7 5.7 5.9 6.2 6.1 5.9 5.6 5.3 5.1 4.8 4.6 4.6 4.5
5.2 5.3 5.5 5.7 5.6 5.5 5.6 5.7 6.0 6.3 6.7 7.0 7.1 7.3 7.3 7.3 7.5 7.6 7.7 7.7 7.7 7.5 7.4 7.3 7.6 7.2 7.2 6.9 6.6 6.1 5.9 5.9 6.1 6.3 6.1 5.8 5.5 5.2 5.0 4.8 4.7 4.6 4.5
5.5 5.7 5.8 5.8 5.7 5.8 6.0 6.2 6.5 6.8 7.2 7.4 7.4 7.6 7.7 7.8 7.9 7.9 7.9 8.0 7.9 7.8 7.6 7.8 7.7 8.0 7.9 7.6 7.0 6.3 6.1 6.2 6.3 6.2 5.9 5.5 5.2 5.1 4.9 4.6 4.6 4.6 4.6
6.0 5.9 5.9 6.0 6.1 6.2 6.5 6.8 7.1 7.4 7.5 7.6 7.8 8.0 8.1 8.1 8.1 8.2 8.2 8.2 8.1 7.9 7.9 7.8 8.1 8.2 8.2 7.8 7.1 6.7 6.5 6.4 6.2 5.9 5.6 5.4 5.2 4.9 4.8 4.6 4.4 4.3 4.4
6.2 6.2 6.2 6.3 6.4 6.6 7.0 7.3 7.5 7.7 7.8 8.0 8.1 8.1 8.1 8.2 8.3 8.3 8.3 8.2 8.0 8.0 8.2 8.1 8.2 8.2 8.1 7.8 7.2 6.8 6.6 6.1 5.9 5.8 5.6 5.4 5.3 5.1 4.9 4.9 4.6 4.7 4.9
6.6 6.5 6.5 6.6 6.9 7.3 7.5 7.7 7.8 8.0 8.1 8.1 8.1 8.1 8.2 8.3 8.3 8.3 8.2 8.1 7.9 8.3 8.4 8.4 8.3 8.2 8.0 7.7 7.0 6.6 6.4 5.9 5.8 5.7 5.6 5.4 5.4 5.4 5.3 5.4 5.6 5.6 5.7
6.8 6.9 6.9 7.1 7.4 7.6 7.7 7.9 8.0 8.1 8.1 8.1 8.1 8.1 8.2 8.2 8.2 8.1 8.0 7.9 8.0 8.5 8.4 8.4 8.3 8.1 7.9 7.5 6.8 6.4 6.2 5.8 5.7 5.7 5.6 5.5 5.4 5.7 5.8 5.8 5.7 5.5 5.5
7.1 7.2 7.4 7.6 7.7 7.8 7.9 8.0 8.1 8.1 8.0 8.0 8.2 8.2 8.2 8.1 8.0 7.9 7.7 7.9 8.3 8.4 8.4 8.2 8.3 8.2 7.8 7.2 6.6 6.3 6.1 5.8 5.7 5.8 5.8 5.7 5.7 5.8 5.9 5.7 5.5 5.4 5.3
7.4 7.6 7.8 7.9 8.0 8.0 8.0 8.0 8.0 8.0 7.9 8.0 8.0 7.9 7.9 7.8 7.5 7.2 7.5 7.8 8.0 8.1 8.1 8.0 8.1 7.9 7.6 6.9 6.5 6.3 6.0 5.7 5.7 5.8 5.7 5.8 5.9 5.8 5.9 5.7 5.7 5.5 5.4
7.6 7.9 7.9 8.0 8.0 8.0 7.9 8.0 7.9 7.9 7.9 7.9 7.8 7.6 7.4 7.2 7.0 7.2 7.1 7.1 7.2 7.4 7.6 7.6 7.9 7.6 7.3 6.7 6.3 6.2 6.0 5.9 5.8 5.8 5.7 5.8 5.9 6.0 5.8 5.8 5.8 5.6 5.5
7.9 7.9 7.9 7.9 7.8 7.8 7.9 8.1 8.0 7.8 7.7 7.8 7.6 7.4 6.9 6.5 6.5 6.4 6.6 6.6 6.7 6.9 6.9 7.1 7.5 7.4 6.9 6.4 6.2 6.2 6.0 5.9 5.8 5.8 5.7 5.8 5.8 5.8 5.7 5.9 5.9 5.9 5.7
7.9 7.8 7.7 7.7 7.7 7.7 8.0 8.0 7.8 7.7 7.5 7.3 7.1 6.6 6.2 6.0 5.8 5.6 5.8 6.0 6.2 6.4 6.4 6.7 7.0 7.0 6.5 6.1 6.1 6.1 5.9 5.9 5.9 5.9 6.0 5.9 5.9 5.8 5.7 5.9 5.9 6.0 5.9
7.8 7.7 7.7 7.7 7.8 7.8 7.9 7.8 7.6 7.3 7.1 6.7 6.2 5.9 5.5 5.2 5.0 4.9 5.2 5.6 5.9 6.0 6.1 6.4 6.6 6.4 6.1 6.0 5.9 5.9 5.9 5.9 5.9 5.9 5.9 5.9 6.0 5.8 5.8 5.8 5.7 5.7 5.8
7.6 7.7 7.8 7.8 7.9 7.9 7.7 7.4 7.1 6.9 6.6 6.2 5.6 5.1 4.7 4.5 4.5 4.6 5.1 5.4 5.5 5.7 5.9 6.0 6.0 6.0 5.9 5.8 5.8 5.8 5.7 5.7 5.9 5.9 5.8 5.8 5.8 5.8 5.8 5.8 5.7 5.6 5.7
7.8 7.7 7.7 7.7 7.6 7.4 7.1 6.9 6.7 6.6 6.2 5.7 5.3 5.1 4.9 4.5 4.6 4.8 5.1 5.3 5.4 5.7 5.6 5.6 5.7 5.8 5.9 5.8 5.8 5.7 5.6 5.6 5.6 5.7 5.7 5.7 5.7 5.6 5.5 5.5 5.7 5.7 5.7
Wind_Speed
9 8 9 8 8 8 7 8 8 8 7 5 4 3 2 2 4 4 4 4 5 5 6 6 7 8 5 6 6 7 7 7 11 14 10 12 15 15 21 23 23 23 25
10 9 9 9 8 8 8 8 9 8 7 6 4 2 1 1 2 2 3 3 4 6 6 7 7 7 8 8 6 9 9 9 10 17 15 11 13 17 21 20 22 22 23
10 9 9 9 9 8 8 8 9 9 8 6 5 3 2 1 1 2 3 4 5 6 6 7 8 8 8 7 8 8 8 9 9 10 15 11 11 11 14 16 14 19 22
11 11 11 10 9 9 8 8 8 8 7 7 6 5 4 3 2 2 4 5 6 6 8 8 7 8 8 9 9 9 9 9 10 10 12 13 11 12 11 12 12 10 11
13 12 12 11 10 9 8 7 7 7 7 6 6 4 4 4 3 3 5 5 7 8 8 10 10 11 15 14 8 9 10 9 9 10 12 12 11 11 12 11 11 12 12
13 13 12 11 9 7 7 7 7 6 6 6 5 4 3 4 5 6 7 6 7 8 8 8 11 12 13 15 17 19 17 12 12 10 12 13 16 13 12 11 11 12 13
11 10 9 9 9 9 9 8 8 7 6 6 5 4 5 6 8 9 9 8 7 8 8 8 9 11 13 13 16 21 20 22 24 16 17 15 16 14 14 15 14 13 13
11 10 9 10 10 9 9 9 8 7 7 6 6 5 6 7 10 10 10 10 7 8 9 9 10 10 12 12 13 13 14 13 18 17 16 16 16 19 17 15 15 16 14
12 12 12 12 11 11 10 10 8 7 6 5 4 5 6 7 11 11 10 7 8 8 10 12 11 10 16 21 14 14 14 13 21 26 32 38 37 37 32 13 10 10 12
12 13 12 12 12 12 11 9 7 6 6 5 6 6 7 7 12 12 11 6 6 6 7 10 13 14 19 22 13 13 15 14 15 16 13 20 25 24 29 18 11 11 11
7 7 9 10 10 9 9 7 7 6 5 6 6 6 7 9 10 13 13 7 6 6 6 6 6 15 19 22 26 12 13 17 16 12 11 10 10 10 10 14 15 10 10
7 7 7 7 6 6 8 7 7 6 6 6 6 6 6 8 14 14 15 15 14 8 8 7 7 16 19 23 19 20 23 16 8 8 9 9 9 9 9 12 18 20 19
7 6 7 7 6 7 7 7 6 6 6 6 6 6 6 5 6 14 15 15 15 9 7 13 16 13 18 15 16 19 12 6 7 8 8 9 9 10 16 12 18 20 20
6 6 6 6 7 6 6 6 6 7 7 6 6 6 6 5 5 5 5 7 12 11 14 2 6 11 13 10 6 8 6 6 6 8 8 9 9 9 9 9 10 10 10
5 6 7 6 8 7 7 7 7 7 8 6 6 5 5 5 6 9 8 7 6 9 2 1 2 4 5 5 4 5 5 6 6 7 8 9 10 10 10 9 9 10 10
6 5 5 5 5 5 5 5 13 14 13 15 15 9 5 13 15 15 18 16 19 6 0 2 4 4 5 5 5 6 6 7 6 7 8 8 9 9 10 10 9 9 10
3 4 4 4 4 4 4 4 4 5 13 16 18 19 20 18 19 20 18 17 13 1 3 2 4 5 5 5 5 6 7 6 8 7 8 9 9 9 11 10 10 10 10
5 5 3 3 3 3 3 3 3 4 5 5 9 12 15 17 19 19 17 17 4 4 2 3 4 4 5 5 5 6 6 7 7 7 8 8 9 9 10 10 10 11 10
4 3 2 2 1 2 2 3 3 4 5 6 5 8 9 16 18 19 19 6 4 2 3 4 4 4 5 5 5 5 6 7 7 8 8 8 9 9 10 10 10 14 14
4 5 3 1 1 1 2 3 4 5 6 6 6 6 5 2 4 6 6 4 4 4 4 5 4 4 5 4 5 5 6 7 7 7 8 8 9 8 10 11 10 11 11
2 3 3 1 1 2 3 4 4 5 6 6 7 7 13 7 6 6 6 5 5 5 4 4 4 4 4 4 4 5 6 6 7 7 7 8 9 9 10 9 10 10 10
2 2 2 1 1 2 3 4 4 5 6 7 7 7 17 8 7 7 5 5 4 4 5 4 4 5 5 4 3 5 6 7 7 6 7 8 8 9 9 9 9 9 9
3 2 1 1 2 2 3 4 4 5 6 7 7 7 7 7 7 7 5 4 4 5 8 8 6 5 10 11 11 10 6 7 7 9 8 8 8 9 8 9 9 9 9
2 1 1 2 2 2 3 4 4 6 6 7 7 7 7 7 7 7 5 5 5 8 9 9 10 11 11 12 13 14 14 16 15 15 14 9 8 10 7 7 7 9 8
1 2 2 2 2 3 3 4 5 5 6 6 7 7 7 7 7 6 6 4 5 6 9 10 11 13 16 17 18 19 20 21 20 19 17 14 11 7 5 5 5 7 7
2 3 3 2 2 3 4 5 6 6 6 6 7 7 7 6 6 6 5 5 5 6 9 10 13 17 18 18 21 21 21 19 19 19 18 11 6 3 3 4 6 4 5
Wind_Direction
163 156 149 152 149 143 137 130 129 127 130 124 118 105 79 35 27 11 10 351 336 329 326 330 319 324 316 312 310 303 298 298 292 295 296 301 305 302 303 303 303 303 296
170 167 164 161 161 158 147 145 147 146 153 153 149 152 102 12 7 346 345 328 321 317 321 317 315 324 317 316 315 313 308 307 302 301 303 309 306 308 305 301 296 296 298
172 172 174 177 178 168 160 159 168 164 169 164 169 174 175 239 292 298 322 309 311 307 311 312 314 317 313 316 313 308 308 304 300 296 301 309 308 311 311 305 303 298 293
178 183 186 187 186 177 171 174 172 180 179 181 182 183 199 226 243 261 295 300 300 300 301 303 303 304 307 318 307 306 308 313 306 301 299 305 308 309 307 308 305 311 308
187 190 193 190 188 180 172 173 169 184 189 191 189 196 218 232 237 276 290 297 294 297 295 294 296 305 299 297 299 309 306 304 300 297 295 300 304 305 307 309 303 305 302
191 195 190 191 181 166 163 173 175 186 191 200 205 208 240 247 236 254 275 287 287 286 290 296 299 301 301 307 301 300 298 298 294 291 290 289 292 294 296 297 302 305 301
192 191 185 176 170 175 174 178 187 193 197 207 207 212 242 250 250 257 268 272 281 284 290 295 300 301 307 304 305 300 291 286 286 290 286 281 287 289 291 289 285 284 285
189 184 173 172 183 181 179 188 190 192 198 204 212 218 240 249 248 257 269 275 274 277 280 286 290 296 300 304 289 288 285 278 275 270 271 279 279 280 274 273 274 272 271
193 190 188 187 185 182 189 191 190 190 196 202 208 216 231 249 251 253 264 272 270 274 276 276 281 287 290 297 302 300 296 300 303 300 297 295 294 295 293 294 287 292 290
195 199 190 187 189 191 192 186 181 184 197 203 214 218 224 247 253 252 255 265 269 270 274 277 279 289 300 304 313 317 310 310 306 299 300 302 299 295 291 282 280 276 280
181 165 178 185 189 185 176 174 166 179 196 199 219 230 234 235 245 248 248 252 260 270 274 283 284 292 304 319 315 315 301 306 316 312 302 298 301 296 293 294 293 280 278
149 160 163 163 167 168 163 158 166 179 191 207 226 240 238 232 231 241 243 247 259 265 274 277 280 296 319 313 314 307 313 326 308 309 306 305 306 305 307 311 306 296 289
150 158 149 145 161 160 165 170 178 190 209 213 218 227 232 212 221 239 248 253 257 264 270 271 296 314 311 309 304 310 328 314 314 314 307 302 307 311 308 305 299 295 291
155 147 141 161 169 167 185 190 197 198 204 216 222 229 233 225 224 227 229 253 264 267 270 293 292 303 300 298 301 313 311 310 312 305 307 309 309 308 302 304 302 304 298
156 160 169 185 187 187 206 202 210 215 213 214 222 224 228 235 231 235 229 235 251 263 271 242 290 295 292 291 297 300 304 308 308 308 311 306 305 308 306 308 303 302 293
174 176 185 185 182 207 204 225 237 239 238 245 251 237 236 244 255 256 256 266 270 275 217 264 273 276 282 294 300 302 303 304 309 312 300 304 305 306 306 307 304 300 298
187 159 170 191 189 197 213 233 253 235 244 254 258 259 262 263 263 263 256 264 274 226 221 233 260 266 276 286 291 295 299 302 307 297 303 303 305 302 304 304 306 304 302
87 74 146 172 197 212 225 242 255 266 269 262 253 257 266 267 268 268 261 263 210 193 194 244 252 262 268 276 284 290 295 300 300 300 302 299 300 304 305 305 309 306 303
117 118 115 104 85 1 314 284 276 276 275 278 279 268 269 269 270 265 261 262 246 212 223 240 243 253 262 271 276 281 283 288 292 294 295 300 304 308 305 308 307 305 302
91 86 64 79 58 271 274 273 275 271 270 268 269 270 271 198 247 241 241 226 231 227 232 235 240 249 256 261 270 277 282 286 290 292 297 301 303 308 305 307 308 307 305
99 109 81 56 272 275 280 276 281 279 276 274 273 273 263 245 255 255 245 225 231 238 234 234 237 246 251 256 261 272 274 281 287 289 296 300 305 306 300 306 304 303 303
76 68 60 32 330 291 284 284 280 279 279 279 281 280 279 276 271 257 232 231 231 236 234 238 245 244 243 248 257 270 274 278 284 288 294 300 300 301 304 311 310 311 312
85 76 66 263 257 263 261 255 264 270 276 276 277 277 271 266 263 268 269 256 245 239 238 234 245 252 248 249 250 253 264 271 277 286 290 292 295 295 307 311 314 315 320
110 172 217 242 256 271 281 283 276 272 271 272 275 273 267 264 262 258 256 252 248 248 244 240 241 250 259 256 258 257 257 263 270 275 277 278 282 294 306 304 310 319 318
220 240 243 258 272 297 291 277 276 277 274 269 271 266 262 257 255 253 251 246 245 247 250 245 247 251 257 258 258 262 265 269 269 268 270 266 270 289 285 300 304 315 326
235 247 253 262 273 267 265 270 275 276 277 276 272 269 264 265 265 264 259 252 249 247 250 251 250 252 259 264 268 270 271 271 274 271 272 279 265 265 281 293 307 310 325